Location: Ahstedt
(52.2048°N, 10.1060°E)
Time: 19:35:41
(UTC+00:00)

Cosmos 2082 Rocket - Pass Details

Date: 16 April 2026
Orbit: 831 x 853 km, 71.0° (Epoch: 13 May)

Event Time Altitude Azimuth Distance (km) Brightness Sun altitude
Exits shadow 02:27:25 25° 230° (SW) 1,665 3.1 -15.9°
Maximum altitude 02:30:48 64° 305° (NW) 946 2.4 -15.5°
Drops below altitude 10° 02:36:30 10° 27° (NNE) 2,495 5.7 -14.8°
Sets 02:39:00 0° 31° (NNE) 3,434 6.8 -14.5°
